Location: Fort Lauderdale
(26.1220°N, 80.1440°W)
Time: 21:40:33
(UTC-04:00)

Envisat - Visible Passes

Search period start: 24 March 2019 00:00
Search period end: 03 April 2019 00:00
Orbit: 764 x 766 km, 98.2° (Epoch: 24 March)

Date Brightness Start Highest point End Pass type
(mag) Time Alt. Az. Time Alt. Az. Time Alt. Az.
24 Mar 3.0 20:00:51 10° SSE 20:05:54 75° ENE 20:10:58 10° N visible
25 Mar 5.5 21:04:24 10° SSW 21:08:14 22° W 21:12:05 10° NW visible
26 Mar 3.7 20:26:27 10° S 20:31:24 56° W 20:36:23 10° NNW visible
27 Mar 3.1 19:49:46 10° SSE 19:54:43 56° ENE 19:59:41 10° N visible
27 Mar 6.2 21:32:56 10° WSW 21:33:55 10° W 21:34:54 10° W visible
28 Mar 5.0 20:52:39 10° SSW 20:56:59 28° W 21:01:19 10° NW visible
29 Mar 3.2 20:15:08 10° S 20:20:11 75° WSW 20:25:16 10° NNW visible
30 Mar 5.9 21:19:55 10° SW 21:22:38 15° W 21:25:22 10° WNW visible
31 Mar 4.5 20:41:04 10° SSW 20:45:44 37° W 20:50:25 10° NNW visible
01 Apr 3.0 20:03:55 10° SSE 20:08:59 83° ENE 20:14:04 10° N visible
02 Apr 5.6 21:07:46 10° SW 21:11:21 19° W 21:14:57 10° NW visible
